Total_Precipitation_Accumulation
0.00 0.00 0.00 0.00 0.00 0.00 0.00 0.00 0.00 0.00 0.00 0.00 0.00 0.00 0.02 0.06 0.14 0.14 0.16 0.21 0.23 0.27 0.24 0.20 0.13 0.07 0.05 0.06 0.08 0.13 0.17 0.22 0.29 0.30 0.22 0.15 0.10 0.06 0.02 0.02 0.02 0.03 0.03
0.00 0.00 0.00 0.00 0.00 0.00 0.00 0.00 0.00 0.00 0.00 0.00 0.00 0.00 0.00 0.03 0.09 0.11 0.15 0.24 0.34 0.31 0.34 0.35 0.28 0.18 0.14 0.13 0.12 0.14 0.16 0.18 0.20 0.23 0.21 0.20 0.15 0.10 0.05 0.04 0.04 0.03 0.01
0.00 0.00 0.00 0.00 0.00 0.00 0.00 0.00 0.00 0.00 0.00 0.00 0.00 0.00 0.00 0.00 0.00 0.01 0.03 0.07 0.18 0.32 0.39 0.41 0.34 0.29 0.23 0.18 0.11 0.08 0.09 0.10 0.12 0.14 0.13 0.12 0.09 0.06 0.03 0.03 0.04 0.01 0.00
0.02 0.02 0.03 0.03 0.01 0.00 0.00 0.00 0.00 0.00 0.00 0.00 0.00 0.00 0.00 0.00 0.00 0.00 0.01 0.02 0.06 0.13 0.27 0.29 0.27 0.29 0.25 0.20 0.13 0.05 0.03 0.03 0.03 0.04 0.04 0.04 0.03 0.02 0.02 0.04 0.05 0.02 0.01
0.11 0.13 0.14 0.14 0.07 0.02 0.01 0.01 0.01 0.00 0.00 0.01 0.00 0.00 0.00 0.00 0.00 0.00 0.00 0.00 0.01 0.04 0.08 0.08 0.09 0.10 0.14 0.16 0.15 0.09 0.04 0.02 0.02 0.01 0.01 0.01 0.01 0.01 0.02 0.05 0.04 0.02 0.02
0.35 0.38 0.36 0.36 0.26 0.15 0.12 0.08 0.08 0.05 0.03 0.02 0.01 0.01 0.00 0.00 0.00 0.00 0.00 0.00 0.00 0.00 0.01 0.01 0.03 0.02 0.04 0.07 0.07 0.08 0.09 0.06 0.04 0.02 0.01 0.00 0.00 0.01 0.02 0.03 0.03 0.03 0.03
0.67 0.73 0.68 0.64 0.52 0.43 0.36 0.33 0.38 0.35 0.21 0.05 0.03 0.02 0.00 0.00 0.00 0.00 0.00 0.00 0.00 0.00 0.00 0.00 0.01 0.02 0.02 0.01 0.02 0.04 0.09 0.12 0.11 0.07 0.03 0.01 0.01 0.01 0.01 0.02 0.03 0.03 0.03
0.56 0.69 0.80 0.74 0.62 0.59 0.63 0.66 0.75 0.75 0.49 0.21 0.12 0.09 0.04 0.02 0.00 0.00 0.00 0.00 0.00 0.00 0.00 0.00 0.00 0.00 0.01 0.00 0.00 0.01 0.03 0.07 0.10 0.07 0.04 0.03 0.02 0.01 0.01 0.01 0.02 0.03 0.03
0.42 0.46 0.61 0.64 0.58 0.56 0.66 0.74 0.92 1.10 0.86 0.55 0.34 0.26 0.22 0.20 0.06 0.00 0.00 0.00 0.00 0.00 0.00 0.00 0.00 0.00 0.00 0.00 0.00 0.00 0.00 0.01 0.03 0.03 0.03 0.03 0.04 0.03 0.03 0.03 0.03 0.04 0.05
0.32 0.31 0.38 0.45 0.51 0.50 0.61 0.68 0.80 1.08 1.16 0.92 0.67 0.42 0.26 0.18 0.11 0.07 0.01 0.00 0.00 0.00 0.00 0.00 0.00 0.00 0.00 0.00 0.00 0.00 0.00 0.00 0.00 0.01 0.02 0.03 0.05 0.07 0.06 0.07 0.08 0.08 0.07
0.22 0.19 0.27 0.28 0.30 0.36 0.48 0.69 0.83 1.01 1.14 1.02 0.86 0.72 0.60 0.41 0.20 0.13 0.12 0.03 0.00 0.00 0.00 0.00 0.00 0.00 0.00 0.00 0.00 0.00 0.00 0.00 0.00 0.00 0.00 0.01 0.03 0.05 0.07 0.09 0.09 0.09 0.07
0.24 0.25 0.27 0.21 0.16 0.21 0.31 0.46 0.66 0.87 1.07 1.09 0.90 0.75 0.71 0.64 0.54 0.37 0.20 0.10 0.04 0.01 0.00 0.00 0.00 0.00 0.00 0.00 0.00 0.00 0.00 0.00 0.00 0.00 0.00 0.00 0.01 0.01 0.03 0.06 0.07 0.06 0.06
0.15 0.19 0.27 0.34 0.29 0.26 0.30 0.36 0.47 0.56 0.77 1.01 0.93 0.79 0.71 0.60 0.55 0.53 0.41 0.23 0.12 0.05 0.01 0.00 0.00 0.00 0.00 0.00 0.00 0.00 0.00 0.00 0.00 0.00 0.00 0.00 0.00 0.00 0.00 0.01 0.01 0.02 0.02
0.08 0.06 0.09 0.18 0.28 0.35 0.34 0.34 0.29 0.34 0.50 0.70 0.78 0.87 0.92 0.76 0.59 0.51 0.46 0.37 0.24 0.17 0.11 0.07 0.01 0.00 0.00 0.00 0.00 0.00 0.00 0.00 0.00 0.00 0.00 0.00 0.00 0.00 0.00 0.00 0.00 0.00 0.00
0.03 0.02 0.04 0.06 0.08 0.11 0.14 0.17 0.19 0.25 0.29 0.46 0.62 0.74 0.87 0.94 0.83 0.62 0.53 0.47 0.39 0.33 0.30 0.26 0.11 0.01 0.01 0.00 0.00 0.00 0.00 0.00 0.00 0.00 0.00 0.00 0.00 0.00 0.00 0.00 0.00 0.00 0.00
0.02 0.01 0.01 0.01 0.01 0.02 0.04 0.09 0.15 0.23 0.26 0.33 0.47 0.58 0.66 0.73 0.86 0.81 0.65 0.57 0.47 0.36 0.30 0.24 0.24 0.08 0.04 0.02 0.01 0.00 0.00 0.00 0.00 0.00 0.00 0.00 0.00 0.00 0.00 0.00 0.00 0.00 0.00
0.02 0.01 0.01 0.01 0.02 0.02 0.03 0.06 0.08 0.10 0.13 0.18 0.25 0.34 0.47 0.68 0.88 0.88 0.81 0.68 0.57 0.47 0.38 0.26 0.21 0.11 0.07 0.05 0.04 0.01 0.00 0.00 0.00 0.00 0.00 0.00 0.00 0.00 0.00 0.00 0.00 0.00 0.00
0.02 0.01 0.02 0.02 0.02 0.03 0.04 0.07 0.09 0.09 0.12 0.15 0.16 0.19 0.31 0.56 0.81 0.94 0.99 0.92 0.78 0.66 0.63 0.51 0.30 0.15 0.11 0.10 0.07 0.04 0.02 0.01 0.00 0.00 0.00 0.00 0.00 0.00 0.00 0.00 0.00 0.00 0.00
0.03 0.01 0.02 0.03 0.02 0.03 0.03 0.05 0.09 0.10 0.12 0.17 0.21 0.21 0.22 0.35 0.57 0.76 0.88 0.92 0.87 0.81 0.79 0.69 0.48 0.32 0.23 0.14 0.08 0.05 0.03 0.02 0.02 0.01 0.00 0.00 0.00 0.00 0.00 0.00 0.00 0.00 0.00
0.06 0.04 0.04 0.08 0.07 0.06 0.05 0.06 0.05 0.04 0.04 0.09 0.14 0.19 0.22 0.24 0.34 0.48 0.62 0.73 0.86 0.94 0.94 0.87 0.68 0.43 0.38 0.23 0.11 0.07 0.06 0.03 0.02 0.02 0.01 0.00 0.00 0.00 0.00 0.00 0.00 0.00 0.00
0.11 0.08 0.07 0.10 0.14 0.16 0.15 0.16 0.10 0.04 0.03 0.04 0.05 0.07 0.11 0.15 0.20 0.29 0.37 0.54 0.79 0.96 1.01 1.01 0.91 0.62 0.42 0.29 0.15 0.10 0.08 0.07 0.04 0.01 0.01 0.01 0.00 0.00 0.00 0.00 0.00 0.00 0.00
0.18 0.15 0.13 0.12 0.12 0.14 0.22 0.21 0.12 0.04 0.03 0.04 0.05 0.04 0.05 0.06 0.10 0.16 0.21 0.28 0.46 0.63 0.76 0.79 0.79 0.64 0.48 0.38 0.30 0.20 0.11 0.07 0.06 0.04 0.02 0.03 0.01 0.01 0.01 0.01 0.00 0.00 0.00
0.23 0.21 0.20 0.18 0.16 0.21 0.22 0.13 0.12 0.10 0.09 0.08 0.06 0.04 0.03 0.02 0.03 0.06 0.11 0.17 0.21 0.27 0.38 0.54 0.59 0.60 0.67 0.55 0.39 0.26 0.18 0.12 0.10 0.08 0.05 0.04 0.03 0.01 0.02 0.01 0.00 0.00 0.00
0.23 0.23 0.29 0.34 0.32 0.27 0.24 0.17 0.14 0.13 0.15 0.13 0.08 0.05 0.04 0.03 0.03 0.04 0.05 0.08 0.12 0.19 0.24 0.26 0.34 0.53 0.68 0.78 0.65 0.46 0.37 0.27 0.19 0.12 0.09 0.06 0.04 0.03 0.01 0.01 0.00 0.00 0.00
0.31 0.34 0.44 0.50 0.42 0.30 0.27 0.25 0.21 0.17 0.18 0.21 0.15 0.09 0.06 0.05 0.07 0.07 0.06 0.08 0.12 0.20 0.22 0.29 0.39 0.45 0.50 0.57 0.60 0.51 0.43 0.36 0.28 0.21 0.18 0.12 0.07 0.05 0.03 0.01 0.01 0.00 0.00
0.28 0.35 0.36 0.32 0.31 0.35 0.36 0.27 0.27 0.26 0.26 0.29 0.23 0.15 0.16 0.14 0.14 0.11 0.09 0.11 0.12 0.14 0.19 0.24 0.26 0.26 0.27 0.31 0.37 0.38 0.40 0.40 0.35 0.28 0.23 0.18 0.13 0.11 0.07 0.04 0.02 0.01 0.01